LEMUR-2-WANLI (44402 NORAD) Tracking and Keplerian Element Data

This shows tracking and keplerian element data for the satellite.

Feedback or suggestion? Click here.




ElementValue
Catalog44402
NameLEMUR-2-WANLI
Epoch Orbit429
Epoch Day214.89460323
Epoch Year2019
RAAN176.2886
Inclination97.4896
Eccentricity0.0025992
Argument of Perigee144.4461
Mean Anonmoly215.8508
Mean Motion15.11761875
Decay Rate7.87E-06
L11 44402U 19038S 19214.89460323 .00000787 00000-0 49609-4 0 9991
L22 44402 97.4896 176.2886 0025992 144.4461 215.8508 15.11761875 4294

Live tracking and technical data element details for LEMUR-2-WANLI (NORAD 44402). LEMUR-2-WANLI can be tracked NOW for your location showing map with azimuth and elevation plus other details from your city location.

Track the satellite on the map from your city or location and see movement details for azimuth, elevation, latitude, longitude, range, height, and movement on the map or in text.







IsCatalogInMostPopularTable: catalog: 44402, numindb: 16
Update: records affected: 1



GetName: 44402 LEMUR-2-WANLI

Hit Count: updated at: Wed, 23 Oct 2019 00:09:12 GMT